471P/2010 YK3 (2010)

Japanese version
Home page
Updated on October 5, 2023

---------------------------------------------------------------------

* Profile

Designation 471P/2010 YK3
Discovery Date December 31, 2010
Magnitude 19.4 mag
Discoverer LINEAR survey (Space Surveillance Telescope, Atom Peak, White Sands Missile Range, NM, USA)

* Orbital Elements

                    Epoch = 2010 June 13.0 TT
     T = 2010 May  26.73248 TT        Peri. =  94.84197
     e = 0.6280168                    Node  = 283.63055 2000.0
     q = 2.1213950 AU                 Incl. =   4.78893
       a =  5.7029323 AU   n = 0.07236970   P =  13.62 years

* Magnitudes Graph

        H = 15.2  G = 0.15

---------------------------------------------------------------------

The orbital elements are printed on CBET 5292.
The magnitudes graphs are made with Comet for Windows.

---------------------------------------------------------------------

Copyright(C) Seiichi Yoshida (comet@aerith.net). All rights reserved.